Miles City, MT

5:28 AM MDT on August 23, 2017 (GMT -0600)
Wiley

Weather History for KMLS - December, 2012

Change the Weather History Date:

Saturday, December 8, 2012

  Actual Average Record
Temperature  
Mean Temperature 16 °F 22 °F  
Max Temperature 31 °F 32 °F 59 °F (1957)
Min Temperature 1 °F 11 °F -29 °F (2013)
Degree Days  
Heating Degree Days 49 43  
Month to date heating degree days 223 337  
Since 1 July heating degree days 1824 2136  
Cooling Degree Days 0 0  
Month to date cooling degree days 0 0  
Year to date cooling degree days 1107 730  
Moisture  
Dew Point 13 °F    
Average Humidity 79    
Maximum Humidity 85    
Minimum Humidity 73    
Precipitation  
Precipitation T in 0.00 in 0.19 in (1966)
Month to date precipitation 0.03 0.06  
Year to date precipitation 5.99 12.21  
Sea Level Pressure  
Sea Level Pressure 29.88 in    
Wind  
Wind Speed 15 mph (NNW)    
Max Wind Speed 29 mph    
Max Gust Speed 35 mph    
Visibility 5 miles    
Events Fog , Snow    
T = Trace of Precipitation, MM = Missing Value Source: NWS Daily Summary

Daily Weather History Graph

Daily Weather History Graph

Search for Another Location

Airport or City:

Trip Planner

Search our weather history database for the weather conditions in past years. The results will help you decide how hot, cold, wet, or windy it might be!

Date:

Astronomy

Dec. 08, 2012 Rise Set
Actual Time 7:34 AM MST 4:16 PM MST
Civil Twilight 7:00 AM MST 4:51 PM MST
Nautical Twilight 6:21 AM MST 5:29 PM MST
Astronomical Twilight 5:45 AM MST 6:05 PM MST
Moon 1:47 AM MST (12/8) 1:01 PM MST (12/8)
Length of Visible Light 9h 51m
Length of Day
8h 41m
Waning Crescent, 27% of the Moon is Illuminated
Dec 8
Waning Crescent
Dec 13
New
Dec 19
First Quarter
Dec 28
Full
Jan 4
Last Quarter

Hourly Weather History & Observations

Time (MST) Temp. Windchill Dew Point Humidity Pressure Visibility Wind Dir Wind Speed Gust Speed Precip Events Conditions
12:53 AM 26.1 °F 16.2 °F 23.0 °F 88% 29.71 in 10.0 mi SE 10.4 mph - N/A   Overcast
1:53 AM 27.0 °F 17.3 °F 23.0 °F 85% 29.67 in 10.0 mi SSE 10.4 mph - N/A   Overcast
2:53 AM 27.0 °F 16.7 °F 21.9 °F 81% 29.66 in 8.0 mi SE 11.5 mph - 0.00 in Snow Light Snow
4:53 AM 27.0 °F 15.6 °F 21.0 °F 78% 29.64 in 10.0 mi SSE 13.8 mph - N/A   Overcast
5:38 AM 26.6 °F 19.1 °F 21.2 °F 80% 29.57 in 2.0 mi SSE 6.9 mph - 0.00 in Snow Light Snow
5:51 AM 26.6 °F 20.0 °F 24.8 °F 93% 29.56 in 3.0 mi SSE 5.8 mph - 0.00 in Snow Light Snow
5:53 AM 27.0 °F 20.5 °F 24.1 °F 89% 29.64 in 5.0 mi SSE 5.8 mph - 0.00 in Snow Light Snow
6:53 AM 27.0 °F 21.6 °F 23.0 °F 85% 29.67 in 10.0 mi SE 4.6 mph - 0.00 in   Overcast
7:11 AM 26.6 °F 19.1 °F 21.2 °F 80% 29.59 in 6.0 mi SE 6.9 mph - 0.00 in Snow Light Snow
7:18 AM 26.6 °F 19.1 °F 21.2 °F 80% 29.59 in 7.0 mi SSE 6.9 mph - 0.00 in Snow Light Snow
7:53 AM 26.1 °F 19.4 °F 21.0 °F 81% 29.68 in 10.0 mi SSE 5.8 mph - 0.00 in   Overcast
8:53 AM 27.0 °F 20.5 °F 21.9 °F 81% 29.70 in 10.0 mi WSW 5.8 mph - N/A   Mostly Cloudy
9:53 AM 30.9 °F 20.2 °F 26.1 °F 82% 29.72 in 10.0 mi WNW 15.0 mph 21.9 mph N/A   Mostly Cloudy
10:53 AM 30.0 °F 17.9 °F 25.0 °F 82% 29.73 in 10.0 mi WNW 18.4 mph - N/A   Mostly Cloudy
11:03 AM 28.4 °F 15.4 °F 24.8 °F 86% 29.66 in 10.0 mi NW 19.6 mph 23.0 mph N/A   Mostly Cloudy
11:09 AM 28.4 °F 15.4 °F 24.8 °F 86% 29.66 in 10.0 mi NW 19.6 mph 23.0 mph N/A   Overcast
11:53 AM 21.9 °F 6.2 °F 18.0 °F 85% 29.78 in 10.0 mi WNW 21.9 mph 28.8 mph N/A   Overcast
12:53 PM 18.0 °F -0.2 °F 12.9 °F 81% 29.84 in 4.0 mi NNW 25.3 mph 32.2 mph 0.00 in Snow Light Snow
1:16 PM 17.6 °F -0.6 °F 12.2 °F 79% 29.76 in 2.5 mi NNW 25.3 mph 34.5 mph 0.00 in Snow Light Snow
1:28 PM 17.6 °F -1.0 °F 12.2 °F 79% 29.77 in 2.5 mi NNW 26.5 mph 32.2 mph 0.00 in Snow Light Snow
1:40 PM 15.8 °F -3.1 °F 10.4 °F 79% 29.79 in 3.0 mi NNW 25.3 mph 32.2 mph 0.00 in Snow Light Snow
1:51 PM 15.8 °F -1.9 °F 10.4 °F 79% 29.80 in 2.0 mi North 21.9 mph 32.2 mph 0.00 in Snow Light Snow
1:53 PM 16.0 °F -2.8 °F 10.0 °F 77% 29.91 in 2.0 mi North 25.3 mph 33.4 mph 0.00 in Snow Light Snow
2:00 PM 15.8 °F -2.3 °F 10.4 °F 79% 29.81 in 1.5 mi NNW 23.0 mph 33.4 mph 0.00 in Snow Light Snow
2:32 PM 14.0 °F -3.9 °F 10.4 °F 86% 29.84 in 0.5 mi NNW 20.7 mph 29.9 mph 0.00 in Fog , Snow Snow
2:45 PM 14.0 °F -3.4 °F 10.4 °F 86% 29.85 in 0.5 mi NNW 19.6 mph 26.5 mph 0.00 in Fog , Snow Snow
2:53 PM 14.0 °F -5.5 °F 9.0 °F 80% 29.96 in 0.5 mi NNW 25.3 mph 28.8 mph 0.00 in Snow Snow
3:21 PM 14.0 °F -5.1 °F 8.6 °F 79% 29.89 in 0.8 mi North 24.2 mph 31.1 mph 0.00 in Snow Light Snow
3:28 PM 14.0 °F -5.1 °F 8.6 °F 79% 29.90 in 1.8 mi North 24.2 mph 32.2 mph 0.00 in Snow Light Snow
3:37 PM 14.0 °F -5.8 °F 8.6 °F 79% 29.91 in 2.0 mi NNW 26.5 mph 33.4 mph 0.00 in Snow Light Snow
3:46 PM 14.0 °F -3.0 °F 8.6 °F 79% 29.92 in 1.5 mi NNW 18.4 mph 32.2 mph 0.00 in Snow Light Snow
3:53 PM 14.0 °F -3.9 °F 9.0 °F 80% 30.04 in 1.5 mi NNW 20.7 mph 28.8 mph 0.00 in Snow Light Snow
4:16 PM 14.0 °F -4.3 °F 8.6 °F 79% 29.96 in 1.2 mi North 21.9 mph 28.8 mph 0.00 in Snow Light Snow
4:36 PM 12.2 °F -5.3 °F 8.6 °F 85% 29.98 in 0.8 mi North 18.4 mph 26.5 mph 0.00 in Snow Light Snow
4:53 PM 12.9 °F -4.4 °F 9.0 °F 84% 30.11 in 1.0 mi North 18.4 mph - 0.00 in Snow Light Snow
5:28 PM 12.2 °F -6.3 °F 8.6 °F 85% 30.03 in 1.2 mi NNW 20.7 mph 28.8 mph 0.00 in Snow Light Snow
5:53 PM 10.9 °F -7.9 °F 6.1 °F 81% 30.17 in 1.5 mi North 20.7 mph 27.6 mph 0.00 in Snow Light Snow
6:36 PM 10.4 °F -7.7 °F 5.0 °F 79% 30.10 in 3.0 mi North 18.4 mph 27.6 mph 0.00 in Snow Light Snow
6:53 PM 9.0 °F -11.0 °F 3.0 °F 77% 30.24 in 10.0 mi North 21.9 mph 28.8 mph 0.00 in   Overcast
7:53 PM 8.1 °F -7.7 °F 1.9 °F 76% 30.30 in 10.0 mi NNW 12.7 mph - N/A   Overcast
8:53 PM 6.1 °F -13.3 °F -0.0 °F 76% 30.33 in 10.0 mi North 18.4 mph - N/A   Scattered Clouds
9:53 PM 5.0 °F -10.0 °F -2.0 °F 73% 30.36 in 10.0 mi NNW 10.4 mph - N/A   Clear
10:53 PM 1.9 °F -12.9 °F -4.0 °F 76% 30.39 in 10.0 mi NNW 9.2 mph - N/A   Mostly Cloudy
11:53 PM 1.9 °F -13.8 °F -4.0 °F 76% 30.44 in 10.0 mi NW 10.4 mph - N/A   Partly Cloudy